EW6492 Weather Reports


time (UTC)temp
F
wind
direction
speed
knots
gust
knots
rain 1hr
in
rain 24hr
in
rain mn
in
humidity
%
barometer
mb
20260507170002 57 32 0.0 7.8 0.00 0.00 0.00 42 964.7
20260507164503 58 327 2.6 7.0 0.00 0.00 0.00 39 964.9
20260507163106 57 318 0.9 7.8 0.00 0.00 0.00 41 965.0
20260507161558 57 262 0.9 7.8 0.00 0.00 0.00 43 964.9
20260507160058 58 5 1.7 5.2 0.00 0.00 0.00 41 965.1
20260507154605 57 319 1.7 7.8 0.00 0.00 0.00 42 965.1
20260507153052 56 336 2.6 6.1 0.00 0.00 0.00 43 964.9
20260507151550 56 329 0.9 5.2 0.00 0.00 0.00 43 964.8
20260507150053 55 332 1.7 6.1 0.00 0.00 0.00 45 964.9
20260507144548 55 320 0.9 6.1 0.00 0.00 0.00 44 964.8
20260507143046 54 329 1.7 5.2 0.00 0.00 0.00 43 964.9
20260507141544 53 86 1.7 6.1 0.00 0.00 0.00 45 964.9
20260507140041 53 293 1.7 7.8 0.00 0.00 0.00 47 965.1
20260507134539 52 334 0.9 7.0 0.00 0.00 0.00 49 965.0
20260507133035 52 323 1.7 7.8 0.00 0.00 0.00 54 965.2
20260507131533 51 333 0.9 7.0 0.00 0.00 0.00 56 965.2
20260507130038 51 340 0.9 4.3 0.00 0.00 0.00 59 965.1
20260507124530 50 209 0.9 4.3 0.00 0.00 0.00 61 965.2
20260507123026 49 271 0.9 4.3 0.00 0.00 0.00 64 965.3
20260507121524 48 319 0.0 5.2 0.00 0.00 0.00 66 965.4
20260507120024 48 313 0.9 4.3 0.00 0.00 0.00 70 965.4
20260507114522 46 315 0.0 4.3 0.00 0.00 0.00 71 965.3
20260507113020 45 316 0.0 3.5 0.00 0.00 0.00 75 965.4
20260507111517 44 319 0.0 3.5 0.00 0.00 0.00 79 965.2
20260507110016 43 333 0.0 3.5 0.00 0.00 0.00 84 965.0
20260507104515 42 51 0.0 0.9 0.00 0.00 0.00 88 964.9
20260507103026 42 319 0.0 0.0 0.00 0.00 0.00 90 964.8
20260507101513 42 319 0.0 0.9 0.00 0.00 0.00 90 964.7
20260507100011 43 319 0.0 0.0 0.00 0.00 0.00 90 964.7
20260507094512 43 319 0.0 0.0 0.00 0.01 0.00 90 964.7
20260507093010 43 319 0.0 0.0 0.00 0.01 0.00 91 964.7
20260507091508 43 319 0.0 0.9 0.00 0.01 0.00 93 964.6
20260507090006 43 319 0.0 0.0 0.00 0.01 0.00 93 964.5
20260507084505 43 319 0.0 0.0 0.00 0.02 0.00 93 964.4
20260507083002 43 319 0.0 0.0 0.00 0.02 0.00 93 964.3
20260507081502 44 319 0.0 0.0 0.00 0.02 0.00 93 964.2
20260507080002 44 319 0.0 0.0 0.00 0.02 0.00 93 964.2
20260507074600 44 319 0.0 0.9 0.00 0.06 0.00 92 964.1
20260507073058 44 319 0.0 0.0 0.00 0.06 0.00 92 964.2
20260507071610 44 319 0.0 0.0 0.00 0.06 0.00 91 964.1
20260507070056 44 319 0.0 0.0 0.00 0.06 0.00 91 964.1
20260507064554 45 319 0.0 0.0 0.00 0.17 0.00 91 964.1
20260507063055 45 319 0.0 0.0 0.00 0.17 0.00 90 964.2
20260507061556 45 319 0.0 0.0 0.00 0.17 0.00 89 964.2
20260507060048 46 319 0.0 0.0 0.00 0.17 0.00 89 964.0
20260507054547 46 319 0.0 0.0 0.00 0.28 0.00 88 964.2
20260507053111 46 319 0.0 0.0 0.00 0.28 0.00 87 964.3
20260507051545 47 319 0.0 0.0 0.00 0.28 0.00 85 964.1
20260507050044 47 319 0.0 0.0 0.00 0.28 0.00 85 964.2
20260507044539 47 319 0.0 0.9 0.00 0.34 0.00 83 964.3
20260507043038 48 319 0.0 0.0 0.00 0.34 0.00 81 964.2
20260507041535 48 319 0.0 0.0 0.00 0.34 0.00 80 964.2
20260507040031 49 319 0.0 0.0 0.00 0.34 0.00 78 964.0
20260507034537 50 319 0.0 0.0 0.00 0.34 0.34 76 964.1
20260507033039 50 319 0.0 0.0 0.00 0.34 0.34 73 964.2
20260507031530 51 319 0.0 0.9 0.00 0.34 0.34 72 964.1
20260507030030 51 319 0.0 0.9 0.00 0.34 0.34 71 964.2
20260507024533 52 319 0.0 0.9 0.00 0.36 0.34 68 964.1
20260507023033 53 319 0.0 0.9 0.00 0.36 0.34 66 963.9
20260507021526 53 319 0.0 0.9 0.00 0.36 0.34 65 963.9
20260507020026 54 319 0.0 0.9 0.00 0.36 0.34 65 963.9
20260507014525 55 319 0.0 0.0 0.00 0.46 0.34 63 963.8
20260507013023 55 319 0.0 0.9 0.00 0.46 0.34 62 963.6
20260507011522 55 319 0.0 1.7 0.00 0.46 0.34 62 963.3
20260507010025 56 319 0.0 1.7 0.00 0.46 0.34 61 963.3
20260507004531 56 319 0.0 3.5 0.00 0.48 0.34 60 963.2
20260507003019 57 309 0.0 1.7 0.00 0.48 0.34 58 963.2
20260507001518 57 325 0.0 5.2 0.00 0.48 0.34 56 963.0
20260507000018 58 317 0.0 3.5 0.00 0.48 0.34 55 963.0
20260506234516 58 304 0.0 3.5 0.00 0.49 0.34 55 962.5
20260506233016 58 315 1.7 4.3 0.00 0.49 0.34 53 962.6
20260506231515 58 309 0.9 5.2 0.00 0.49 0.34 53 962.3
20260506230015 58 315 1.7 5.2 0.00 0.49 0.34 55 962.2
20260506224515 59 5 0.0 3.5 0.00 0.49 0.34 56 962.4
20260506223014 59 289 0.0 5.2 0.00 0.49 0.34 53 962.5
20260506221513 59 268 0.0 4.3 0.00 0.49 0.34 56 962.6
20260506220029 59 331 0.9 3.5 0.00 0.49 0.34 53 962.7
20260506214512 59 309 0.9 3.5 0.00 0.51 0.34 52 962.7
20260506213011 59 326 0.0 6.1 0.00 0.51 0.34 52 962.5
20260506211511 59 321 1.7 6.1 0.00 0.51 0.34 51 962.4
20260506210013 60 350 0.9 5.2 0.00 0.51 0.34 53 962.2
20260506204510 60 331 0.9 6.1 0.00 0.65 0.34 52 962.2
20260506203018 60 316 1.7 6.1 0.00 0.65 0.34 53 962.2
20260506201509 60 315 0.9 5.2 0.00 0.65 0.34 51 962.3
20260506200008 61 37 0.9 6.1 0.00 0.65 0.34 51 962.2
20260506194508 61 320 0.0 4.3 0.00 0.76 0.34 51 962.2
20260506193007 61 232 0.9 4.3 0.00 0.76 0.34 50 962.1
20260506191507 61 323 2.6 6.1 0.00 0.76 0.34 48 961.9
20260506190006 62 329 2.6 6.1 0.00 0.76 0.34 50 961.8
20260506184504 61 330 1.7 7.0 0.00 0.76 0.34 53 961.8
20260506183005 61 336 1.7 5.2 0.00 0.76 0.34 52 961.8
20260506181501 61 336 2.6 6.1 0.00 0.76 0.34 51 961.8
20260506180116 60 306 1.7 7.0 0.00 0.76 0.34 54 962.2
20260506174559 59 330 0.9 6.1 0.00 0.76 0.34 55 962.2
20260506173134 59 260 0.0 4.3 0.00 0.76 0.34 55 962.3
20260506171556 59 318 0.0 6.1 0.00 0.76 0.34 57 962.4